Regional Weather Roundup
Issued by NWS

Home | Current Version | Previous Version | Text Only | Print | Product List | Glossary On
Versions: 1 2 3 4 5 6 7 8 9 10 11 12 13 14 15 16 17 18 19 20 21 22 23 24 25 26 27 28 29 30 31 32 33 34 35 36 37 38 39 40 41 42 43 44 45 46 47 48 49 50
000
ASUS43 KDTX 201210
RWRMI
MICHIGAN HOURLY REGIONAL WEATHER ROUNDUP
NATIONAL WEATHER SERVICE DETROIT/PONTIAC MI
800 AM EDT MON OCT 20 2014

NOTE: "FAIR" INDICATES FEW OR NO CLOUDS BELOW 12,000 FEET WITH NO
SIGNIFICANT WEATHER AND/OR OBSTRUCTION TO VISIBILITY.

MIZ047>049-052>055-059>063-066>070-074>076-081>083-201300-
SOUTHEAST LOWER MICHIGAN

CITY           SKY/WX    TMP DP  RH WIND       PRES   REMARKS
ADRIAN         CLOUDY    47  43  86 SW14      29.87F
6HR MIN TEMP:  46; 6HR MAX TEMP:  48; 6HR PCP: TRACE;

ALMA           MOCLDY    46  44  93 S6        29.80S
ANN ARBOR      CLOUDY    47  42  83 SW9       29.86F
BAD AXE        CLOUDY   N/A N/A N/A S9        29.81
DETROIT CITY   CLOUDY    50  43  77 SW7       29.87F
6HR MIN TEMP:  49; 6HR MAX TEMP:  52; 6HR PCP:  0.02;

DETROIT        CLOUDY    48  44  86 S9        29.87F
6HR MIN TEMP:  46; 6HR MAX TEMP:  49; 6HR PCP:  0.02;

FLINT          CLOUDY    50  43  77 S9        29.83F
6HR MIN TEMP:  49; 6HR MAX TEMP:  50; 6HR PCP:  0.01;

GROSSE ILE     CLOUDY    48  45  87 S13       29.86F
HILLSDALE      CLOUDY    47  46  93 SW6       29.85F
6HR MIN TEMP:  46; 6HR MAX TEMP:  49;

HOWELL         CLOUDY    46  44  93 S7        29.83S
6HR MIN TEMP:  45; 6HR MAX TEMP:  47;


CITY           SKY/WX    TMP DP  RH WIND       PRES   REMARKS
JACKSON        PTCLDY    46  43  89 SW9       29.84F
6HR MIN TEMP:  46; 6HR MAX TEMP:  49; 6HR PCP:  0.03;

LAMBERTVILLE   CLOUDY    46  43  87 S8        29.89F
LANSING        PTCLDY    46  42  86 S9        29.82F
6HR MIN TEMP:  46; 6HR MAX TEMP:  49; 6HR PCP:  0.02;

LAPEER         NOT AVBL
MASON          MOCLDY    46  43  90 S3        29.82F
MONROE         CLOUDY    48  43  81 SW9       29.87S
MT. CLEMENS    CLOUDY    48  44  86 SW8       29.83F
6HR MIN TEMP:  47; 6HR MAX TEMP:  50; 6HR PCP:  0.05;

PONTIAC        CLOUDY    46  42  86 S6        29.84F
6HR MIN TEMP:  45; 6HR MAX TEMP:  47; 6HR PCP:  0.07;

PORT HOPE        N/A     47  44  90 VRB7      29.78S
6HR MIN TEMP:  46; 6HR MAX TEMP:  47; 6HR PCP:  0.18;

PORT HURON     LGT RAIN  46  45  93 S5        29.86S
TRI CITIES     CLOUDY    50  45  83 S10       29.80F
6HR MIN TEMP:  48; 6HR MAX TEMP:  50; 6HR PCP:  0.04;

YPSILANTI      CLOUDY    51  43  74 SW10      29.87S
6HR MIN TEMP:  49; 6HR MAX TEMP:  52; 6HR PCP:  0.03;

$$
MIZ043>046-050>051-056>058-064>065-071>073-077>080-201300-
SOUTHWEST LOWER MICHIGAN

CITY           SKY/WX    TMP DP  RH WIND       PRES   REMARKS
BATTLE CREEK   MOCLDY    48  43  82 S10       29.83F
6HR MIN TEMP:  47; 6HR MAX TEMP:  49; 6HR PCP:  0.04;

BENTON HARBOR  CLEAR     46  43  89 S7        29.81F
6HR MIN TEMP:  46; 6HR MAX TEMP:  49; 6HR PCP:  0.01;

BIG RAPIDS     PTCLDY    44  44 100 S5        29.77R FOG
6HR MIN TEMP:  44; 6HR MAX TEMP:  49; 6HR PCP:  0.01;

COLDWATER      CLOUDY    49  45  85 SW5       29.84S
6HR MIN TEMP:  48; 6HR MAX TEMP:  49;

HOLLAND        PTCLDY    47  44  90 S6        29.80S
6HR MIN TEMP:  47; 6HR MAX TEMP:  54; 6HR PCP:  0.01;

GRAND RAPIDS   MOCLDY    47  44  90 S8        29.80F
6HR MIN TEMP:  47; 6HR MAX TEMP:  50; 6HR PCP: TRACE;

KALAMAZOO      PTCLDY    46  43  89 S8        29.82F
6HR MIN TEMP:  46; 6HR MAX TEMP:  49; 6HR PCP:  0.02;

MARSHALL       MOCLDY    46  42  89 S6        29.83F
MUSKEGON       PTCLDY    48  45  89 SW6       29.79R
6HR MIN TEMP:  48; 6HR MAX TEMP:  55; 6HR PCP: TRACE;

$$
MIZ016>042-201300-
NORTHERN LOWER MICHIGAN

CITY           SKY/WX    TMP DP  RH WIND       PRES   REMARKS
ALPENA         CLOUDY    46  44  93 S3        29.75S
6HR MIN TEMP:  45; 6HR MAX TEMP:  46; 6HR PCP:  0.03;

BEAVER ISLAND  CLOUDY    50  47  89 NW7       29.75R
6HR MIN TEMP:  50; 6HR MAX TEMP:  53;

BELLAIRE       CLOUDY    50  47  88 S3        29.75R
CADILLAC       CLOUDY    47  47  99 SW9       29.74F
CHARLEVOIX     CLOUDY    51  49  93 W9        29.77R
6HR MIN TEMP:  50; 6HR MAX TEMP:  51;

FRANKFORT      CLOUDY    50  47  87 CALM      29.76S
GAYLORD        CLOUDY    46  44  93 SW3       29.74S
6HR MIN TEMP:  45; 6HR MAX TEMP:  47;

GRAYLING       CLOUDY    49  49  99 CALM      29.75S
HARBOR SPRINGS CLOUDY    52  48  86 SW6       29.73S
HOUGHTON LAKE  CLOUDY    48  46  93 S6        29.76F
6HR MIN TEMP:  47; 6HR MAX TEMP:  48;

MANISTEE       MOCLDY    43  39  87 CALM      29.77R
OSCODA         CLOUDY    46  45  97 SW7       29.77S
PELLSTON       CLOUDY    50  47  89 SW3       29.73S
6HR MIN TEMP:  49; 6HR MAX TEMP:  51;

TRAVERSE CITY  CLOUDY    50  46  86 CALM      29.75R
6HR MIN TEMP:  50; 6HR MAX TEMP:  52;

$$
MIZ007>008-015-201300-
EASTERN UPPER MICHIGAN

CITY           SKY/WX    TMP DP  RH WIND       PRES   REMARKS
KINROSS        CLOUDY    46  45  93 W3        29.72R
6HR MIN TEMP:  45; 6HR MAX TEMP:  46;

MACKINAC ISLAN CLOUDY    50  49  94 W5        29.72S
6HR MIN TEMP:  48; 6HR MAX TEMP:  51;

NEWBERRY       CLOUDY    44  43  95 W8        29.73R
S. S. MARIE    CLOUDY    46  44  93 CALM      29.71S FOG
6HR MIN TEMP:  44; 6HR MAX TEMP:  46; 6HR PCP:  0.02;

$$
MIZ004>006-011>014-085-201300-
CENTRAL UPPER MICHIGAN

CITY           SKY/WX    TMP DP  RH WIND       PRES   REMARKS
MANISTIQUE     CLOUDY    45  42  91 NW8       29.75R
ESCANABA       CLOUDY    46  41  81 NW7       29.78R
6HR MIN TEMP:  46; 6HR MAX TEMP:  48;

MENOMINEE      CLOUDY    45  41  87 N8        29.78R
6HR MIN TEMP:  45; 6HR MAX TEMP:  50;

SAWYER-GWINN   CLOUDY    45  41  87 NW7       29.78R
$$
MIZ001>003-009>011-084-201300-
WESTERN UPPER MICHIGAN

CITY           SKY/WX    TMP DP  RH WIND       PRES   REMARKS
IRON MOUNTAIN  CLOUDY    46  42  86 NW7       29.80R
6HR MIN TEMP:  37; 6HR MAX TEMP:  47;

HOUGHTON       CLOUDY    45  41  86 NW7       29.81R
6HR MIN TEMP:  45; 6HR MAX TEMP:  47;

COPPER HARBOR    N/A     47  42  83 N20       29.80R
6HR MIN TEMP:  46; 6HR MAX TEMP:  47;

IRONWOOD       CLOUDY    46  43  87 CALM      29.84R
6HR MIN TEMP:  46; 6HR MAX TEMP:  50;

$$

ABBREVIATIONS USED IN REMARKS
   TC - TEMPERATURE IN CELSIUS
  WCI - WIND CHILL INDEX
   HX - HEAT INDEX
  VSB - VISIBILITY




USA.gov is the U.S. government's official web portal to all federal, state and local government web resources and services.